User: anonymous   Login
Location: St. Malo Provincial Park
(49.3214°N, 96.9305°W)
Time: 10:35:10
(UTC-05:00)
Language:

Iridium 6 - Orbit

View from above orbital plane
View from above orbital plane
View from above satellite
View from above satellite

Ground track
Ground track

The orbit data is extracted from the following two-line orbital elements,

1 24794U 97020C   17357.29133070  .33479621 -16083-5  31051-3 0  9994
2 24794  86.3482 237.4619 0038730  97.6871 263.3574 16.47860342 80605
Epoch (UTC): 23 December 2017 06:59:30
Eccentricity: 0.0038730
inclination: 86.3482°
perigee height: 120 km
apogee height: 170 km
right ascension of ascending node: 237.4619°
argument of perigee: 97.6871°
revolutions per day: 16.47860342
mean anomaly at epoch: 263.3574°
orbit number at epoch: 8060

The dashed part of the orbit path shows where the satellite is in the earth's shadow,  

DLR